Weather History for Shelby, NC

Change the Weather History Date:

Friday, May 2, 2014

  Actual Average (KHKY) Record (KHKY)
Temperature  
Mean Temperature 58 °F -  
Max Temperature 69 °F 74 °F 89 °F (1951)
Min Temperature 47 °F 52 °F 30 °F (1963)
Degree Days  
Heating Degree Days 7    
Growing Degree Days 8 (Base 50)    
Moisture  
Dew Point 42 °F    
Average Humidity 58    
Maximum Humidity 89    
Minimum Humidity 32    
Precipitation  
Precipitation 0.00 in - - ()
Sea Level Pressure  
Sea Level Pressure 29.92 in    
Wind  
Wind Speed 3 mph (South)    
Max Wind Speed 12 mph    
Max Gust Speed 16 mph    
Visibility 10 miles    
Events      
Averages and records for this station are not official NWS values.
T = Trace of Precipitation, MM = Missing Value Source: NWS Daily Summary

Daily Weather History Graph

Daily Weather History Graph

Search for Another Location

Airport:

Trip Planner

Search our weather history database for the weather conditions in past years. The results will help you decide how hot, cold, wet, or windy it might be!

Date:

Astronomy

May. 02, 2014 Rise Set
Actual Time 6:34 AM EDT 8:13 PM EDT
Civil Twilight 6:06 AM EDT 8:40 PM EDT
Nautical Twilight 5:34 AM EDT 9:13 PM EDT
Astronomical Twilight 4:59 AM EDT 9:48 PM EDT
Moon 9:12 AM EDT (5/2) 11:32 PM EDT (5/2)
Length of Visible Light 14h 33m
Length of Day
13h 39m
Waxing Crescent, 12% of the Moon is Illuminated
May 2
Waxing Crescent
May 6
First Quarter
May 14
Full
May 21
Last Quarter
May 28
New

Hourly Weather History & Observations

Time (EDT) Temp. Dew Point Humidity Pressure Visibility Wind Dir Wind Speed Gust Speed Precip Events Conditions
12:15 AM 55.0 °F 45.7 °F 71% 29.90 in 10.0 mi West 3.5 mph - N/A   Clear
12:35 AM 53.8 °F 45.9 °F 75% 29.89 in 10.0 mi WNW 5.8 mph - N/A   Clear
12:55 AM 51.8 °F 44.8 °F 77% 29.91 in 10.0 mi West 4.6 mph - N/A   Clear
1:15 AM 53.6 °F 44.8 °F 72% 29.92 in 10.0 mi Calm Calm - N/A   Clear
1:35 AM 52.7 °F 44.6 °F 74% 29.92 in 10.0 mi Calm Calm - N/A   Clear
1:55 AM 52.3 °F 44.1 °F 73% 29.92 in 10.0 mi Calm Calm - N/A   Clear
2:15 AM 51.3 °F 43.9 °F 76% 29.91 in 10.0 mi NW 4.6 mph - N/A   Clear
2:35 AM 52.0 °F 42.8 °F 71% 29.91 in 10.0 mi Calm Calm - N/A   Clear
2:55 AM 52.9 °F 42.1 °F 67% 29.91 in 10.0 mi Calm Calm - N/A   Clear
3:15 AM 51.3 °F 41.9 °F 70% 29.91 in 10.0 mi NW 3.5 mph - N/A   Clear
3:35 AM 52.2 °F 40.6 °F 65% 29.91 in 10.0 mi Calm Calm - N/A   Clear
3:55 AM 51.6 °F 41.4 °F 68% 29.92 in 10.0 mi Calm Calm - N/A   Clear
4:15 AM 52.7 °F 40.3 °F 63% 29.93 in 10.0 mi Calm Calm - N/A   Clear
4:35 AM 49.3 °F 43.5 °F 81% 29.93 in 10.0 mi SSE 3.5 mph - N/A   Clear
4:55 AM 51.8 °F 41.5 °F 68% 29.94 in 10.0 mi Calm Calm - N/A   Clear
5:15 AM 48.7 °F 43.7 °F 83% 29.94 in 10.0 mi Calm Calm - N/A   Clear
5:35 AM 48.2 °F 43.3 °F 83% 29.94 in 10.0 mi Calm Calm - N/A   Clear
5:55 AM 49.1 °F 43.7 °F 82% 29.94 in 10.0 mi Calm Calm - N/A   Clear
6:15 AM 48.2 °F 44.2 °F 86% 29.95 in 10.0 mi Calm Calm - N/A   Clear
6:35 AM 47.7 °F 44.6 °F 89% 29.95 in 10.0 mi Calm Calm - N/A   Clear
6:55 AM 48.4 °F 44.8 °F 87% 29.97 in 10.0 mi Calm Calm - N/A   Clear
7:15 AM 49.6 °F 45.7 °F 86% 29.97 in 10.0 mi Calm Calm - N/A   Clear
7:35 AM 50.4 °F 45.5 °F 83% 29.97 in 10.0 mi Calm Calm - N/A   Clear
7:55 AM 50.0 °F 45.7 °F 85% 29.97 in 10.0 mi Calm Calm - N/A   Clear
8:15 AM 50.9 °F 47.3 °F 87% 29.99 in 10.0 mi Calm Calm - N/A   Clear
8:35 AM 52.0 °F 45.1 °F 77% 29.99 in 10.0 mi Calm Calm - N/A   Clear
8:55 AM 52.0 °F 46.6 °F 82% 29.99 in 10.0 mi Calm Calm - N/A   Clear
9:15 AM 53.1 °F 43.9 °F 71% 29.98 in 10.0 mi Calm Calm - N/A   Clear
9:35 AM 54.0 °F 45.7 °F 74% 29.99 in 10.0 mi Calm Calm - N/A   Clear
9:55 AM 54.7 °F 45.5 °F 71% 29.97 in 10.0 mi Calm Calm - N/A   Clear
10:15 AM 55.8 °F 47.3 °F 73% 29.97 in 10.0 mi Calm Calm - N/A   Clear
10:35 AM 57.2 °F 45.1 °F 64% 29.97 in 10.0 mi Calm Calm - N/A   Clear
10:55 AM 59.2 °F 40.6 °F 50% 29.96 in 10.0 mi Calm Calm - N/A   Clear
11:15 AM 60.8 °F 41.4 °F 49% 29.95 in 10.0 mi Calm Calm - N/A   Clear
11:55 AM 61.9 °F 39.9 °F 44% 29.95 in 10.0 mi Calm Calm - N/A   Mostly Cloudy
12:15 PM 62.2 °F 38.1 °F 41% 29.94 in 10.0 mi West 5.8 mph - N/A   Scattered Clouds
12:35 PM 63.5 °F 37.0 °F 38% 29.95 in 10.0 mi SW 6.9 mph - N/A   Scattered Clouds
12:55 PM 63.9 °F 37.0 °F 37% 29.95 in 10.0 mi SW 4.6 mph - N/A   Scattered Clouds
1:15 PM 64.6 °F 38.8 °F 39% 29.94 in 10.0 mi SSW 4.6 mph - N/A   Scattered Clouds
1:35 PM 64.8 °F 40.3 °F 41% 29.93 in 10.0 mi SSE 6.9 mph - N/A   Clear
1:55 PM 65.8 °F 38.1 °F 36% 29.92 in 10.0 mi South 9.2 mph - N/A   Clear
2:15 PM 66.2 °F 38.3 °F 36% 29.92 in 10.0 mi SSW 10.4 mph 16.1 mph N/A   Clear
2:35 PM 67.1 °F 38.5 °F 35% 29.92 in 10.0 mi SSE 9.2 mph - N/A   Clear
2:55 PM 67.8 °F 39.4 °F 35% 29.91 in 10.0 mi SW 5.8 mph 9.2 mph N/A   Clear
3:15 PM 67.6 °F 37.8 °F 33% 29.90 in 10.0 mi SW 4.6 mph 16.1 mph N/A   Clear
3:35 PM 68.2 °F 39.6 °F 35% 29.89 in 10.0 mi SW 8.1 mph - N/A   Clear
3:55 PM 68.9 °F 39.0 °F 34% 29.89 in 10.0 mi SSW 11.5 mph - N/A   Scattered Clouds
4:15 PM 68.9 °F 37.8 °F 32% 29.88 in 10.0 mi South 6.9 mph - N/A   Clear
4:35 PM 68.9 °F 39.0 °F 34% 29.88 in 10.0 mi South 9.2 mph - N/A   Clear
4:55 PM 68.9 °F 39.2 °F 34% 29.88 in 10.0 mi South 10.4 mph - N/A   Clear
5:15 PM 69.4 °F 39.7 °F 34% 29.87 in 10.0 mi SSW 9.2 mph 16.1 mph N/A   Clear
5:35 PM 69.4 °F 39.2 °F 33% 29.88 in 10.0 mi SW 9.2 mph - N/A   Clear
5:55 PM 68.9 °F 38.3 °F 33% 29.87 in 10.0 mi South 6.9 mph - N/A   Clear
6:15 PM 68.4 °F 39.0 °F 34% 29.87 in 10.0 mi South 8.1 mph - N/A   Clear
6:35 PM 67.5 °F 38.5 °F 35% 29.86 in 10.0 mi South 5.8 mph - N/A   Clear
6:55 PM 66.9 °F 40.8 °F 39% 29.86 in 10.0 mi South 5.8 mph - N/A   Clear
7:15 PM 66.9 °F 41.0 °F 39% 29.86 in 10.0 mi South 4.6 mph - N/A   Clear
7:35 PM 66.2 °F 40.6 °F 39% 29.86 in 10.0 mi South 3.5 mph - N/A   Clear
7:55 PM 65.3 °F 41.9 °F 42% 29.86 in 10.0 mi SSE 3.5 mph - N/A   Clear
8:15 PM 64.2 °F 42.8 °F 46% 29.86 in 10.0 mi SSE 4.6 mph - N/A   Clear
8:35 PM 63.5 °F 43.0 °F 47% 29.87 in 10.0 mi South 4.6 mph - N/A   Clear
8:55 PM 63.5 °F 43.0 °F 47% 29.87 in 10.0 mi South 4.6 mph - N/A   Clear
9:15 PM 62.4 °F 43.2 °F 49% 29.87 in 10.0 mi Calm Calm - N/A   Clear
9:35 PM 61.9 °F 45.0 °F 54% 29.88 in 10.0 mi SSE 5.8 mph - N/A   Clear
9:55 PM 60.8 °F 45.1 °F 56% 29.88 in 10.0 mi SSE 5.8 mph - N/A   Clear
10:15 PM 60.3 °F 45.3 °F 58% 29.89 in 10.0 mi SSE 4.6 mph - N/A   Clear
10:35 PM 59.7 °F 45.9 °F 60% 29.90 in 10.0 mi SSE 3.5 mph - N/A   Clear
10:55 PM 59.2 °F 45.9 °F 61% 29.90 in 10.0 mi SSE 3.5 mph - N/A   Clear
11:15 PM 59.0 °F 45.9 °F 62% 29.90 in 10.0 mi SSE 4.6 mph - N/A   Clear
11:35 PM 58.3 °F 45.9 °F 63% 29.90 in 10.0 mi SSE 3.5 mph - N/A   Clear
11:55 PM 58.5 °F 45.9 °F 63% 29.89 in 10.0 mi SSE 4.6 mph - N/A   Clear